TimeCDT,TemperatureF,Dew PointF,Humidity,Sea Level PressureIn,VisibilityMPH,Wind Direction,Wind SpeedMPH,Gust SpeedMPH,PrecipitationIn,Events,Conditions,WindDirDegrees,DateUTC
12:58 AM,82.9,78.8,87,29.81,10.0,SW,13.8,-,N/A,,Scattered Clouds,220,2013-06-29 05:58:00
1:58 AM,83.1,78.3,85,29.80,10.0,WSW,12.7,-,N/A,,Partly Cloudy,240,2013-06-29 06:58:00
2:13 AM,84.2,78.8,84,29.78,10.0,SW,15.0,19.6,N/A,Thunderstorm,Mostly Cloudy,230,2013-06-29 07:13:00
2:18 AM,82.4,78.8,89,29.78,10.0,WSW,10.4,-,N/A,,Scattered Clouds,240,2013-06-29 07:18:00
2:38 AM,82.4,78.8,89,29.78,10.0,SW,12.7,-,N/A,Thunderstorm,Mostly Cloudy,230,2013-06-29 07:38:00
2:43 AM,82.4,78.8,89,29.78,10.0,WSW,13.8,-,N/A,Thunderstorm,Scattered Clouds,240,2013-06-29 07:43:00
2:53 AM,84.2,78.8,84,29.78,10.0,WSW,11.5,-,N/A,,Mostly Cloudy,240,2013-06-29 07:53:00
2:58 AM,82.4,78.8,89,29.81,10.0,NW,9.2,18.4,N/A,Thunderstorm,Mostly Cloudy,320,2013-06-29 07:58:00
3:01 AM,80.6,73.4,79,29.80,10.0,North,12.7,21.9,N/A,Thunderstorm,Thunderstorm,10,2013-06-29 08:01:00
3:06 AM,77.0,71.6,83,29.79,10.0,North,12.7,21.9,N/A,Thunderstorm,Thunderstorm,10,2013-06-29 08:06:00
3:19 AM,75.2,71.6,89,29.80,6.0,NNE,11.5,20.7,N/A,Rain-Thunderstorm,Heavy Thunderstorms and Rain,20,2013-06-29 08:19:00
3:24 AM,73.4,71.6,94,29.80,2.0,NNE,12.7,20.7,N/A,Rain-Thunderstorm,Heavy Thunderstorms and Rain,30,2013-06-29 08:24:00
3:29 AM,73.4,69.8,88,29.79,1.8,NNE,16.1,32.2,N/A,Rain-Thunderstorm,Heavy Thunderstorms and Rain,30,2013-06-29 08:29:00
3:34 AM,71.6,69.8,94,29.79,2.0,North,13.8,32.2,N/A,Rain-Thunderstorm,Heavy Thunderstorms and Rain,10,2013-06-29 08:34:00
3:35 AM,71.6,69.8,94,29.79,2.0,North,12.7,32.2,N/A,Rain-Thunderstorm,Heavy Thunderstorms and Rain,360,2013-06-29 08:35:00
3:40 AM,71.6,69.8,94,29.80,2.0,NW,17.3,27.6,N/A,Rain-Thunderstorm,Heavy Thunderstorms and Rain,310,2013-06-29 08:40:00
3:45 AM,71.6,69.8,94,29.81,2.5,NW,21.9,28.8,N/A,Rain-Thunderstorm,Heavy Thunderstorms and Rain,310,2013-06-29 08:45:00
3:50 AM,71.6,69.8,94,29.82,2.5,NNW,17.3,28.8,N/A,Rain-Thunderstorm,Heavy Thunderstorms and Rain,330,2013-06-29 08:50:00
3:53 AM,71.6,69.8,94,29.80,1.8,NNW,19.6,28.8,N/A,Rain-Thunderstorm,Heavy Thunderstorms and Rain,340,2013-06-29 08:53:00
3:58 AM,71.6,68.0,88,29.80,1.2,North,12.7,23.0,0.74,Rain-Thunderstorm,Heavy Thunderstorms and Rain,10,2013-06-29 08:58:00
4:03 AM,69.8,68.0,94,29.80,1.8,North,12.7,23.0,N/A,Rain-Thunderstorm,Heavy Thunderstorms and Rain,360,2013-06-29 09:03:00
4:08 AM,69.8,68.0,94,29.81,4.0,North,12.7,19.6,N/A,Rain-Thunderstorm,Thunderstorms and Rain,350,2013-06-29 09:08:00
4:13 AM,69.8,68.0,94,29.80,4.0,North,12.7,19.6,N/A,Rain-Thunderstorm,Heavy Thunderstorms and Rain,10,2013-06-29 09:13:00
4:18 AM,69.8,68.0,94,29.82,3.0,North,10.4,18.4,N/A,Rain-Thunderstorm,Heavy Thunderstorms and Rain,360,2013-06-29 09:18:00
4:23 AM,69.8,68.0,94,29.83,2.5,North,9.2,-,N/A,Rain-Thunderstorm,Heavy Thunderstorms and Rain,10,2013-06-29 09:23:00
4:28 AM,69.8,68.0,94,29.85,1.8,NNW,16.1,-,N/A,Rain-Thunderstorm,Heavy Thunderstorms and Rain,330,2013-06-29 09:28:00
4:33 AM,69.8,68.0,94,29.83,1.0,NNE,10.4,-,N/A,Rain-Thunderstorm,Heavy Thunderstorms and Rain,20,2013-06-29 09:33:00
4:38 AM,69.8,68.0,94,29.82,1.0,North,5.8,-,N/A,Rain-Thunderstorm,Heavy Thunderstorms and Rain,10,2013-06-29 09:38:00
4:39 AM,69.8,68.0,94,29.83,1.0,North,4.6,-,N/A,Rain-Thunderstorm,Heavy Thunderstorms and Rain,360,2013-06-29 09:39:00
4:44 AM,69.8,68.0,94,29.82,3.0,NE,4.6,-,N/A,Rain-Thunderstorm,Thunderstorms and Rain,40,2013-06-29 09:44:00
4:49 AM,69.8,68.0,94,29.80,6.0,NE,3.5,-,N/A,Rain-Thunderstorm,Thunderstorms and Rain,40,2013-06-29 09:49:00
4:54 AM,69.8,68.0,94,29.80,8.0,Calm,Calm,-,N/A,Rain-Thunderstorm,Light Thunderstorms and Rain,0,2013-06-29 09:54:00
4:58 AM,70.0,68.5,95,29.81,8.0,East,2.3,-,0.88,Rain-Thunderstorm,Light Thunderstorms and Rain,90,2013-06-29 09:58:00
5:03 AM,69.8,68.0,94,29.80,10.0,SE,4.6,-,N/A,Rain-Thunderstorm,Light Thunderstorms and Rain,140,2013-06-29 10:03:00
5:04 AM,69.8,68.0,94,29.80,10.0,SSE,4.6,-,N/A,Rain-Thunderstorm,Light Rain,150,2013-06-29 10:04:00
5:15 AM,69.8,68.0,94,29.80,10.0,SSE,6.9,-,N/A,Rain-Thunderstorm,Light Thunderstorms and Rain,150,2013-06-29 10:15:00
5:30 AM,69.8,68.0,94,29.80,9.0,SSE,10.4,-,N/A,Rain-Thunderstorm,Light Thunderstorms and Rain,160,2013-06-29 10:30:00
5:45 AM,71.6,69.8,94,29.81,8.0,SE,3.5,-,N/A,Rain-Thunderstorm,Light Thunderstorms and Rain,130,2013-06-29 10:45:00
5:58 AM,71.6,69.8,94,29.82,9.0,SSE,5.8,-,0.06,Rain-Thunderstorm,Light Thunderstorms and Rain,150,2013-06-29 10:58:00
6:03 AM,71.6,69.8,94,29.81,10.0,SSE,5.8,-,N/A,Rain-Thunderstorm,Light Thunderstorms and Rain,150,2013-06-29 11:03:00
6:12 AM,71.6,69.8,94,29.81,10.0,SSE,3.5,-,N/A,Rain-Thunderstorm,Light Rain,150,2013-06-29 11:12:00
6:17 AM,71.6,69.8,94,29.80,10.0,ESE,4.6,-,N/A,Rain-Thunderstorm,Light Thunderstorms and Rain,110,2013-06-29 11:17:00
6:52 AM,71.6,69.8,94,29.82,9.0,WNW,4.6,-,N/A,Rain-Thunderstorm,Light Thunderstorms and Rain,300,2013-06-29 11:52:00
6:53 AM,71.6,69.8,94,29.82,10.0,WNW,4.6,-,N/A,Rain-Thunderstorm,Light Rain,300,2013-06-29 11:53:00
6:58 AM,71.6,69.4,93,29.83,10.0,WNW,2.3,-,0.04,Rain-Thunderstorm,Light Rain,290,2013-06-29 11:58:00
7:13 AM,71.6,69.8,94,29.81,9.0,ESE,1.2,-,N/A,Rain-Thunderstorm,Light Rain,120,2013-06-29 12:13:00
7:18 AM,71.6,69.8,94,29.80,8.0,ESE,2.3,-,N/A,Rain-Thunderstorm,Light Rain,110,2013-06-29 12:18:00
7:20 AM,71.6,69.8,94,29.80,7.0,ESE,4.6,-,N/A,Rain-Thunderstorm,Thunderstorms and Rain,120,2013-06-29 12:20:00
7:35 AM,71.6,69.8,94,29.83,7.0,South,4.6,-,N/A,Rain-Thunderstorm,Rain,180,2013-06-29 12:35:00
7:45 AM,71.6,69.8,94,29.84,4.0,WNW,4.6,-,N/A,Rain-Thunderstorm,Rain,290,2013-06-29 12:45:00
7:58 AM,73.2,71.6,95,29.84,4.0,West,8.1,-,0.10,Rain,Rain,270,2013-06-29 12:58:00
8:06 AM,73.4,71.6,94,29.83,5.0,SW,6.9,-,N/A,Rain-Thunderstorm,Thunderstorms and Rain,220,2013-06-29 13:06:00
8:21 AM,75.2,71.6,89,29.83,3.0,WSW,11.5,-,N/A,Rain,Rain,250,2013-06-29 13:21:00
8:26 AM,75.2,71.6,89,29.82,2.5,West,12.7,-,N/A,Rain,Rain,260,2013-06-29 13:26:00
8:31 AM,75.2,71.6,89,29.82,4.0,West,11.5,-,N/A,Rain,Rain,260,2013-06-29 13:31:00
8:36 AM,75.2,71.6,89,29.82,5.0,West,10.4,-,N/A,Rain,Light Rain,260,2013-06-29 13:36:00
8:58 AM,75.0,72.3,91,29.83,7.0,SW,11.5,-,0.12,Rain,Light Rain,230,2013-06-29 13:58:00
8:59 AM,75.2,71.6,89,29.82,8.0,WSW,11.5,-,N/A,Rain-Thunderstorm,Light Thunderstorms and Rain,240,2013-06-29 13:59:00
9:12 AM,75.2,73.4,94,29.82,5.0,WSW,13.8,-,N/A,Rain-Thunderstorm,Rain,240,2013-06-29 14:12:00
9:23 AM,75.2,73.4,94,29.82,4.0,SW,12.7,-,N/A,Rain,Rain,230,2013-06-29 14:23:00
9:28 AM,75.2,71.6,89,29.81,5.0,SW,11.5,-,N/A,Rain,Rain,220,2013-06-29 14:28:00
9:41 AM,75.2,71.6,89,29.81,7.0,SSW,12.7,-,N/A,Rain-Thunderstorm,Light Thunderstorms and Rain,210,2013-06-29 14:41:00
9:56 AM,75.2,71.6,89,29.80,10.0,South,11.5,-,N/A,,Overcast,190,2013-06-29 14:56:00
9:58 AM,75.2,72.1,90,29.81,10.0,South,10.4,-,0.12,,Overcast,190,2013-06-29 14:58:00
10:08 AM,75.2,71.6,89,29.80,10.0,SSW,11.5,-,N/A,,Mostly Cloudy,200,2013-06-29 15:08:00
10:13 AM,75.2,71.6,89,29.81,10.0,SSW,12.7,-,N/A,Rain,Light Rain,200,2013-06-29 15:13:00
10:18 AM,75.2,71.6,89,29.81,10.0,SSW,11.5,-,N/A,Rain,Light Rain,200,2013-06-29 15:18:00
10:23 AM,75.2,71.6,89,29.80,10.0,South,10.4,-,N/A,Rain,Light Rain,190,2013-06-29 15:23:00
10:25 AM,75.2,71.6,89,29.80,10.0,South,13.8,-,N/A,Rain,Light Rain,190,2013-06-29 15:25:00
10:58 AM,76.6,72.7,87,29.81,10.0,SSW,11.5,-,0.02,,Partly Cloudy,200,2013-06-29 15:58:00
11:58 AM,80.1,72.5,78,29.81,10.0,SW,13.8,-,N/A,,Scattered Clouds,230,2013-06-29 16:58:00
2:58 PM,84.2,74.5,72,29.79,10.0,WSW,12.7,-,N/A,,Mostly Cloudy,240,2013-06-29 19:58:00
3:58 PM,82.9,73.8,74,29.77,10.0,SW,10.4,-,N/A,,Partly Cloudy,230,2013-06-29 20:58:00
4:58 PM,82.8,74.8,77,29.74,10.0,SW,10.4,-,N/A,,Partly Cloudy,220,2013-06-29 21:58:00
5:58 PM,83.5,76.1,78,29.73,10.0,SW,11.5,-,N/A,,Scattered Clouds,230,2013-06-29 22:58:00
6:08 PM,84.2,77.0,79,29.72,10.0,SW,11.5,-,N/A,,Mostly Cloudy,220,2013-06-29 23:08:00
6:13 PM,84.2,77.0,79,29.72,10.0,SW,11.5,-,N/A,,Mostly Cloudy,220,2013-06-29 23:13:00
6:23 PM,82.4,77.0,84,29.72,10.0,SSW,10.4,-,N/A,,Scattered Clouds,210,2013-06-29 23:23:00
6:33 PM,82.4,77.0,84,29.73,10.0,SSW,10.4,-,N/A,,Mostly Cloudy,210,2013-06-29 23:33:00
6:43 PM,82.4,77.0,84,29.73,10.0,SW,9.2,-,N/A,,Scattered Clouds,220,2013-06-29 23:43:00
6:53 PM,82.4,77.0,84,29.73,10.0,SW,11.5,-,N/A,,Mostly Cloudy,220,2013-06-29 23:53:00
6:58 PM,82.0,76.1,82,29.74,10.0,SSW,8.1,-,N/A,,Mostly Cloudy,210,2013-06-29 23:58:00
7:08 PM,82.4,75.2,79,29.73,10.0,SW,11.5,-,N/A,,Mostly Cloudy,230,2013-06-30 00:08:00
7:18 PM,82.4,75.2,79,29.73,10.0,SSW,8.1,-,N/A,,Mostly Cloudy,210,2013-06-30 00:18:00
7:23 PM,82.4,75.2,79,29.73,10.0,SW,9.2,-,N/A,,Mostly Cloudy,220,2013-06-30 00:23:00
7:58 PM,81.9,75.9,82,29.75,10.0,SW,10.4,-,N/A,,Mostly Cloudy,220,2013-06-30 00:58:00
8:03 PM,82.4,77.0,84,29.74,10.0,SW,10.4,-,N/A,,Overcast,220,2013-06-30 01:03:00
8:23 PM,82.4,77.0,84,29.75,10.0,SW,9.2,-,N/A,,Mostly Cloudy,220,2013-06-30 01:23:00
8:28 PM,82.4,77.0,84,29.74,10.0,SW,12.7,-,N/A,,Scattered Clouds,220,2013-06-30 01:28:00
8:58 PM,81.5,75.9,83,29.76,10.0,SW,10.4,-,N/A,,Clear,230,2013-06-30 01:58:00
9:58 PM,81.9,75.2,80,29.78,10.0,SW,10.4,-,N/A,,Partly Cloudy,230,2013-06-30 02:58:00
10:58 PM,81.9,76.3,83,29.78,10.0,SW,10.4,-,N/A,,Scattered Clouds,220,2013-06-30 03:58:00
11:58 PM,81.5,76.5,85,29.77,10.0,SSW,12.7,-,N/A,,Scattered Clouds,200,2013-06-30 04:58:00